{"data":{"norad_id":60195,"epoch":"2026-05-25T03:38:18.629664Z","epoch_age_seconds":55709,"freshness":"FRESH","line1":"1 60195U 24124N   26145.15160451 -.00000092  00000+0  41023-5 0  9991","line2":"2 60195  53.1594 144.2960 0000964  72.5918 287.5205 15.69693583108549","mean_motion":15.69693583,"eccentricity":9.64e-5,"inclination_deg":53.1594,"raan_deg":144.296,"arg_perigee_deg":72.5918,"mean_anomaly_deg":287.5205,"bstar":4.1023e-6,"rev_number":10854,"period_min":91.737649665858,"perigee_km":359.12419540477,"apogee_km":360.42326459351,"semimajor_km":6737.9107299991,"source":"CELESTRAK","updated_at":"2026-05-25T13:38:19.195934Z"}}